Hourly Data Report for May 17, 2004

SHERBROOKE A
QUEBEC

45°26'00.000" N
71°41'00.000" W
241.40 m
7028124
71610
YSC

Download Data

Hourly Data (May 2004)
Hourly Data Report for May 17, 2004
TIME
LST
Temp Definition
°C
Dew Point Definition
°C
Rel Hum Definition
%
Precip. Amount Definition
mm

Wind Dir Definition
10's deg

Wind Spd Definition
km/h
Visibility Definition
km
Stn Press Definition
kPa
Hmdx Definition


Wind Chill Definition


Weather Definition


00:00 4.0 2.7 91     0 15.0 99.79      
01:00 4.1 2.9 92     0 15.0 99.84      
02:00 4.3 3.1 92     0 15.0 99.90      
03:00 3.4 1.8 89     0 15.0 99.93      
04:00 2.7 1.5 92     0 12.9 99.98      
05:00 3.3 1.9 91     0 15.0 100.06      
06:00 8.6 6.5 87     0 15.0 100.16      
07:00 11.6 7.3 75     0 24.1 100.21     Mainly Clear
08:00 13.2 3.5 52   14 6 24.1 100.20     Mainly Clear
09:00 16.1 4.6 46   15 4 24.1 100.16     Clear
10:00 16.7 2.9 40   14 9 24.1 100.12     Clear
11:00 17.3 2.9 38   28 7 24.1 100.05     Clear
12:00 18.6 2.2 33   10 6 24.1 99.95     Clear
13:00 19.8 2.3 31   23 6 24.1 99.87     Clear
14:00 21.3 3.7 31   26 13 24.1 99.79     Mainly Clear
15:00 22.0 4.6 32   16 9 24.1 99.67     Mainly Clear
16:00 22.2 5.4 34   21 11 24.1 99.56     Mainly Clear
17:00 22.3 6.2 35   22 9 15.0 99.51      
18:00 21.3 7.3 40   21 7 15.0 99.48      
19:00 17.8 7.5 51   15 9 15.0 99.41      
20:00 16.7 6.3 50   16 9 15.0 99.38      
21:00 17.9 5.4 44   16 13 15.0 99.30      
22:00 15.3 6.7 56   12 6 15.0 99.27      
23:00 11.3 6.8 74   15 6 15.0 99.22      

Notes on Data Quality.

Legend

  • E = Estimated
  • M = Missing
  • NA = Not Available*
  • [empty] = Indicates an unobserved value
Date modified: